Regional Weather Roundup
Issued by NWS Jackson, KY

Home | Current Version | Previous Version | Text Only | Print | Product List | Glossary Off
Versions: 1 2 3 4 5 6 7 8 9 10 11 12 13 14 15 16 17 18 19 20 21 22 23 24 25 26 27 28 29 30 31 32 33 34 35 36 37 38 39 40 41 42 43 44 45 46 47 48 49 50

000
ASUS43 KJKL 060810
RWRJKL

EAST KENTUCKY HOURLY WEATHER ROUNDUP
NATIONAL WEATHER SERVICE JACKSON KY
300 AM EST SAT FEB 06 2016

NOTE: "FAIR" INDICATES FEW OR NO CLOUDS BELOW 12,000 FEET WITH
NO SIGNIFICANT WEATHER AND/OR OBSTRUCTIONS TO VISIBILITY.

* THESE REPORTS ARE NOT UNDER NWS QUALITY CONTROL AND MAY NOT
  REPORT WEATHER SUCH AS PRECIPITATION AND FOG.

KYZ079-080-083-085-087-088-110-112-115-119-120-060900
...EASTERN KENTUCKY...

CITY           SKY/WX    TMP DP  RH WIND       PRES   REMARKS
JACKSON        PTCLDY    30  15  53 S5        30.34S WCI  25
LONDON         CLOUDY    26  21  81 CALM      30.36R
SOMERSET*      PTCLDY    27  23  86 SE3       30.38S
MONTICELLO*    PTCLDY    25  19  78 W12       30.38S WCI  14
WILLIAMSBURG*  CLOUDY    27  21  80 CALM      30.37R
MIDDLESBORO*   CLOUDY    26  23  89 CALM      30.39R
HARLAN APT*      N/A     28  21  74 CALM      30.37R
HAZARD APT*    SUNNY    N/A N/A N/A CALM      30.35S
BLACK MTN*       N/A     23  12  63 S9          N/A  WCI  13
BIG SANDY*     CLOUDY    32  17  55 S3        30.34F
MOREHEAD APT*  CLOUDY    30  18  59 S6        30.36S WCI  24
$$

KYZ035-036-041-042-044-050-067-078-099-060900
...CENTRAL KENTUCKY...

CITY           SKY/WX    TMP DP  RH WIND       PRES   REMARKS
MT STERLING*   CLOUDY    32  19  59 SW5       30.35S WCI  27
DANVILLE*      PTCLDY    30  19  64 SW3       30.36R
RICHMOND*      PTCLDY    34  16  47 S7        30.34R WCI  28
LEXINGTON      PTCLDY    31  18  58 S7        30.33S WCI  24
FRANKFORT      CLOUDY    26  17  68 S5        30.33S WCI  20
$$

KYZ091>093-OHZ055-061-077-WVZ005-015-034-035-042-060900
...SOUTHERN OHIO/WEST VIRGINIA...

CITY           SKY/WX    TMP DP  RH WIND       PRES   REMARKS
COVINGTON      CLOUDY    27  24  89 CALM      30.32S
COLUMBUS       MOCLDY    29  19  66 S5        30.31R WCI  24
DAYTON         CLOUDY    24  21  88 CALM      30.32S
WILMINGTON     CLOUDY    28  20  71 CALM      30.31R
HUNTINGTON       N/A     29  17  61 S3        30.35S
CHARLESTON     MOCLDY    26  21  81 N3        30.36S
PINEVILLE*       N/A     23  19  83 MISG      30.40S
BECKLEY          N/A     24  13  62 SE5       30.31S WCI  18
$$

VAZ002-007-008-TNZ017-027-036-066-071-060900
...SOUTHWEST VIRGINIA/EAST TENNESSEE...

CITY           SKY/WX    TMP DP  RH WIND       PRES   REMARKS
BRISTOL        CLOUDY    24  19  81 CALM      30.37S
KNOXVILLE      MOCLDY    29  21  72 CALM      30.38S
OAK RIDGE      PTCLDY    30  22  72 CALM      30.39S
CROSSVILLE     PTCLDY    29  17  61 CALM      30.34S
NASHVILLE      PTCLDY    32  22  66 CALM      30.38S
$$

...KEY TO REMARKS...
VSB - VISIBILITY IN MILES
WCI - WIND CHILL INDEX
HX  - HEAT INDEX

$$



USA.gov is the U.S. government's official web portal to all federal, state and local government web resources and services.